DO5RS-5 Weather Reports


time (UTC)temp
C
wind
direction
speed
KPH
gust
KPH
rain 1hr
cm
rain 24hr
cm
rain mn
cm
humidity
%
barometer
mb
20260902092904 18 0.0 0.0 0.00 0.00 0.00 78 1024.3
20260902091904 18 0.0 0.0 0.00 0.00 0.00 79 1024.4
20260902090909 18 0.0 0.0 0.00 0.00 0.00 79 1024.4
20260902084904 17 0.0 0.0 0.00 0.00 0.00 82 1024.6
20260902083904 17 0.0 0.0 0.00 0.00 0.00 85 1024.6
20260902082908 17 0.0 0.0 0.00 0.00 0.00 85 1024.8
20260902075905 16 0.0 0.0 0.00 0.00 0.00 83 1024.6
20260902074909 16 0.0 0.0 0.00 0.00 0.00 83 1024.4
20260902072905 16 0.0 0.0 0.00 0.00 0.00 82 1024.4
20260902071904 16 0.0 0.0 0.00 0.00 0.00 83 1024.6
20260902070909 16 0.0 0.0 0.00 0.00 0.00 82 1024.4
20260902064904 16 0.0 0.0 0.00 0.00 0.00 81 1024.4
20260902063906 16 0.0 0.0 0.00 0.00 0.00 81 1024.4
20260902062906 16 0.0 0.0 0.00 0.00 0.00 81 1024.5
20260902061904 16 0.0 0.0 0.00 0.00 0.00 81 1024.4
20260902060904 16 0.0 0.0 0.00 0.00 0.00 81 1024.6
20260902055905 16 0.0 0.0 0.00 0.00 0.00 81 1024.3
20260902054904 16 0.0 0.0 0.00 0.00 0.00 80 1024.1
20260902053905 16 0.0 0.0 0.00 0.00 0.00 80 1024.3
20260902052910 16 0.0 0.0 0.00 0.00 0.00 80 1024.4
20260902050906 16 0.0 0.0 0.00 0.00 0.00 79 1024.3
20260902045905 16 0.0 0.0 0.00 0.00 0.00 79 1024.3
20260902044909 16 0.0 0.0 0.00 0.00 0.00 79 1024.2
20260902042904 16 0.0 0.0 0.00 0.00 0.00 79 1024.2
20260902041911 16 0.0 0.0 0.00 0.00 0.00 79 1024.2
20260902035905 16 0.0 0.0 0.00 0.00 0.00 79 1024.4
20260902034904 16 0.0 0.0 0.00 0.00 0.00 78 1024.5
20260902033904 16 0.0 0.0 0.00 0.00 0.00 77 1024.5
20260902032905 16 0.0 0.0 0.00 0.00 0.00 78 1024.5
20260902031905 16 0.0 0.0 0.00 0.00 0.00 78 1024.5
20260902030905 16 0.0 0.0 0.00 0.00 0.00 78 1024.5
20260902025905 16 0.0 0.0 0.00 0.00 0.00 78 1024.5
20260902024905 16 0.0 0.0 0.00 0.00 0.00 78 1024.5
20260902023910 16 0.0 0.0 0.00 0.00 0.00 78 1024.6
20260902014912 16 0.0 0.0 0.00 0.00 0.00 77 1024.5
20260902012906 16 0.0 0.0 0.00 0.00 0.00 77 1024.4
20260902011909 16 0.0 0.0 0.00 0.00 0.00 77 1024.4
20260902005905 16 0.0 0.0 0.00 0.00 0.00 77 1024.3
20260902004905 16 0.0 0.0 0.00 0.00 0.00 77 1024.4
20260902003905 16 0.0 0.0 0.00 0.00 0.00 77 1024.4
20260902002904 17 0.0 0.0 0.00 0.00 0.00 77 1024.5
20260902001905 17 0.0 0.0 0.00 0.00 0.00 77 1024.5
20260902000906 17 0.0 0.0 0.00 0.00 0.00 77 1024.8
20260901235906 17 0.0 0.0 0.00 0.00 0.00 78 1024.6
20260901234905 17 0.0 0.0 0.00 0.00 0.00 78 1024.9
20260901233905 17 0.0 0.0 0.00 0.00 0.00 78 1024.8
20260901232906 17 0.0 0.0 0.00 0.00 0.00 77 1024.8
20260901231906 17 0.0 0.0 0.00 0.00 0.00 77 1024.8
20260901230905 17 0.0 0.0 0.00 0.00 0.00 77 1024.8
20260901225905 17 0.0 0.0 0.00 0.00 0.00 76 1024.6
20260901224904 17 0.0 0.0 0.00 0.00 0.00 76 1024.6
20260901223903 17 0.0 0.0 0.00 0.00 0.00 76 1024.6
20260901222904 17 0.0 0.0 0.00 0.00 0.00 77 1024.5
20260901221904 18 0.0 0.0 0.00 0.00 0.00 76 1024.5
20260901220904 18 0.0 0.0 0.00 0.00 0.00 76 1024.6
20260901215909 18 0.0 0.0 0.00 0.00 0.00 76 1024.6
20260901213905 18 0.0 0.0 0.00 0.00 0.00 76 1024.5
20260901212907 18 0.0 0.0 0.00 0.00 0.00 75 1024.4
20260901211905 18 0.0 0.0 0.00 0.00 0.00 75 1024.4
20260901210905 18 0.0 0.0 0.00 0.00 0.00 76 1024.3
20260901205904 18 0.0 0.0 0.00 0.00 0.00 75 1024.3
20260901204907 18 0.0 0.0 0.00 0.00 0.00 75 1024.4
20260901203907 19 0.0 0.0 0.00 0.00 0.00 74 1024.4
20260901202904 19 0.0 0.0 0.00 0.00 0.00 73 1024.4
20260901201904 19 0.0 0.0 0.00 0.00 0.00 73 1024.4
20260901200909 20 0.0 0.0 0.00 0.00 0.00 72 1024.4
20260901194904 20 0.0 0.0 0.00 0.00 0.00 71 1024.4
20260901193905 20 0.0 0.0 0.00 0.00 0.00 71 1024.3
20260901192905 20 0.0 0.0 0.00 0.00 0.00 71 1024.3
20260901191910 20 0.0 0.0 0.00 0.00 0.00 70 1024.1
20260901185910 20 0.0 0.0 0.00 0.00 0.00 69 1024.0
20260901181905 21 0.0 0.0 0.00 0.00 0.00 65 1023.0
20260901180910 21 0.0 0.0 0.00 0.00 0.00 62 1023.2
20260901174909 21 0.0 0.0 0.00 0.00 0.00 61 1023.0
20260901172908 22 0.0 0.0 0.00 0.00 0.00 59 1022.8
20260901170910 22 0.0 0.0 0.00 0.00 0.00 56 1022.8
20260901164905 22 0.0 0.0 0.00 0.00 0.00 57 1022.9
20260901163910 23 0.0 0.0 0.00 0.00 0.00 55 1022.8
20260901161906 26 0.0 0.0 0.00 0.00 0.00 49 1022.4
20260901160906 27 0.0 0.0 0.00 0.00 0.00 46 1022.4
20260901155908 26 0.0 0.0 0.00 0.00 0.00 47 1022.2
20260901154906 26 0.0 0.0 0.00 0.00 0.00 48 1022.2
20260901153918 26 0.0 0.0 0.00 0.00 0.00 47 1022.3
20260901151908 24 0.0 0.0 0.00 0.00 0.00 49 1022.4
20260901150908 24 0.0 0.0 0.00 0.00 0.00 45 1022.4
20260901145906 24 0.0 0.0 0.00 0.00 0.00 45 1022.1
20260901144906 24 0.0 0.0 0.00 0.00 0.00 44 1022.3
20260901143905 26 0.0 0.0 0.00 0.00 0.00 44 1022.1
20260901142908 25 0.0 0.0 0.00 0.00 0.00 45 1022.2
20260901134906 26 0.0 0.0 0.00 0.00 0.00 47 1022.3
20260901133905 23 0.0 0.0 0.00 0.00 0.00 49 1022.4
20260901132905 24 0.0 0.0 0.00 0.00 0.00 48 1022.5
20260901131905 25 0.0 0.0 0.00 0.00 0.00 47 1022.5
20260901130907 26 0.0 0.0 0.00 0.00 0.00 48 1022.6
20260901125907 25 0.0 0.0 0.00 0.00 0.00 49 1022.7
20260901124906 25 0.0 0.0 0.00 0.00 0.00 51 1022.8
20260901123909 25 0.0 0.0 0.00 0.00 0.00 49 1022.9
20260901121910 27 0.0 0.0 0.00 0.00 0.00 47 1022.7
20260901114905 25 0.0 0.0 0.00 0.00 0.00 53 1023.0
20260901113909 24 0.0 0.0 0.00 0.00 0.00 55 1023.1
20260901111905 23 0.0 0.0 0.00 0.00 0.00 62 1023.3
20260901110905 22 0.0 0.0 0.00 0.00 0.00 65 1023.5
20260901105905 22 0.0 0.0 0.00 0.00 0.00 66 1023.6
20260901104904 21 0.0 0.0 0.00 0.00 0.00 69 1023.8
20260901103904 20 0.0 0.0 0.00 0.00 0.00 70 1023.7
20260901102904 20 0.0 0.0 0.00 0.00 0.00 73 1024.0
20260901101904 19 0.0 0.0 0.00 0.00 0.00 75 1024.0
20260901100909 19 0.0 0.0 0.00 0.00 0.00 74 1023.9
20260901094904 19 0.0 0.0 0.00 0.00 0.00 77 1024.1
20260901093904 19 0.0 0.0 0.00 0.00 0.00 77 1024.2